Weather History for KALS - July, 2013

Change the Weather History Date:

Wednesday, July 24, 2013

  Actual Average Record
Temperature  
Mean Temperature 70 °F 65 °F  
Max Temperature 86 °F 82 °F 90 °F (2003)
Min Temperature 53 °F 48 °F 39 °F (1973)
Degree Days  
Heating Degree Days 0 1  
Month to date heating degree days 18 33  
Since 1 June heating degree days 120 201  
Since 1 July heating degree days 18 33  
Cooling Degree Days 5 1  
Month to date cooling degree days 48 24  
Year to date cooling degree days 64 30  
Since 1 June cooling degree days 64 30  
Growing Degree Days 20 (Base 50)    
Moisture  
Dew Point 45 °F    
Average Humidity 46    
Maximum Humidity 71    
Minimum Humidity 20    
Precipitation  
Precipitation T in 0.03 in 0.39 in (1933)
Month to date precipitation 0.52 0.72  
Year to date precipitation 2.13 3.43  
Snow  
Snow 0.00 in 0.00 in 0.00 in (2002)
Month to date snowfall 0.0 0.0  
Since 1 June snowfall 0.0 0.0  
Since 1 July snowfall 0.0 0.0  
Snow Depth 0.00 in    
Sea Level Pressure  
Sea Level Pressure 30.04 in    
Wind  
Wind Speed 9 mph (ESE)    
Max Wind Speed 29 mph    
Max Gust Speed 35 mph    
Visibility 10 miles    
Events Rain    
T = Trace of Precipitation, MM = Missing Value Source: NWS Daily Summary

Daily Weather History Graph

Daily Weather History Graph

Search for Another Location

Airport or City:

Trip Planner

Search our weather history database for the weather conditions in past years. The results will help you decide how hot, cold, wet, or windy it might be!

Date:

Astronomy

Jul. 24, 2013 Rise Set
Actual Time 6:01 AM MDT 8:18 PM MDT
Civil Twilight 5:31 AM MDT 8:47 PM MDT
Nautical Twilight 4:55 AM MDT 9:23 PM MDT
Astronomical Twilight 4:15 AM MDT 10:03 PM MDT
Moon 9:30 PM MDT (7/24) 8:20 AM MDT (7/24)
Length of Visible Light 15h 15m
Length of Day
14h 16m
Waning Gibbous, 94% of the Moon is Illuminated
Jul 24
Waning Gibbous
Jul 29
Last Quarter
Aug 6
New
Aug 14
First Quarter
Aug 20
Full

Hourly Weather History & Observations

Time (MDT) Temp. Dew Point Humidity Pressure Visibility Wind Dir Wind Speed Gust Speed Precip Events Conditions
12:52 AM 61.0 °F 44.1 °F 54% 30.00 in 10.0 mi SSW 3.5 mph - N/A   Clear
1:52 AM 57.9 °F 46.0 °F 65% 29.97 in 10.0 mi SSE 6.9 mph - N/A   Clear
2:52 AM 57.9 °F 46.9 °F 67% 29.99 in 10.0 mi WSW 4.6 mph - N/A   Clear
3:52 AM 57.0 °F 46.0 °F 67% 29.99 in 10.0 mi SSW 5.8 mph - N/A   Clear
4:52 AM 54.0 °F 45.0 °F 72% 30.03 in 10.0 mi ENE 4.6 mph - N/A   Clear
5:52 AM 54.0 °F 44.1 °F 69% 30.06 in 10.0 mi ESE 4.6 mph - N/A   Clear
6:52 AM 57.0 °F 46.9 °F 69% 30.05 in 10.0 mi NE 4.6 mph - N/A   Clear
7:52 AM 62.1 °F 46.0 °F 56% 30.05 in 10.0 mi Calm Calm - N/A   Clear
8:52 AM 66.0 °F 46.0 °F 48% 30.08 in 10.0 mi Calm Calm - N/A   Clear
9:52 AM 70.0 °F 46.9 °F 44% 30.05 in 10.0 mi NNE 4.6 mph - N/A   Clear
10:52 AM 73.0 °F 48.0 °F 41% 30.05 in 10.0 mi East 6.9 mph - N/A   Clear
11:52 AM 78.1 °F 46.0 °F 32% 30.02 in 10.0 mi East 5.8 mph - N/A   Clear
12:52 PM 82.0 °F 39.0 °F 22% 29.99 in 10.0 mi South 9.2 mph - N/A   Clear
1:52 PM 82.9 °F 37.0 °F 19% 29.99 in 10.0 mi NW 25.3 mph 32.2 mph N/A   Partly Cloudy
2:09 PM 77.0 °F 42.8 °F 29% 30.30 in 10.0 mi NW 28.8 mph 34.5 mph N/A   Scattered Clouds
2:52 PM 82.0 °F 41.0 °F 23% 29.99 in 10.0 mi ENE 5.8 mph - N/A   Clear
3:52 PM 75.9 °F 43.0 °F 31% 30.00 in 10.0 mi ENE 19.6 mph 26.5 mph N/A   Clear
4:52 PM 75.9 °F 42.1 °F 30% 30.00 in 10.0 mi ENE 16.1 mph 23.0 mph N/A   Clear
5:52 PM 79.0 °F 39.0 °F 24% 29.97 in 10.0 mi ENE 5.8 mph - N/A   Clear
6:52 PM 75.0 °F 43.0 °F 32% 29.99 in 10.0 mi ESE 8.1 mph - N/A   Clear
7:52 PM 72.0 °F 44.1 °F 37% 29.98 in 10.0 mi ESE 6.9 mph - N/A   Overcast
8:20 PM 64.4 °F 51.8 °F 64% 30.30 in 8.0 mi SSW 18.4 mph 34.5 mph 0.00 in Rain Light Rain
8:52 PM 64.0 °F 48.9 °F 58% 30.02 in 10.0 mi South 17.3 mph - 0.00 in   Partly Cloudy
9:52 PM 62.1 °F 48.0 °F 60% 30.07 in 10.0 mi South 16.1 mph - N/A   Overcast
10:52 PM 60.1 °F 50.0 °F 69% 30.07 in 10.0 mi SSE 15.0 mph - N/A   Partly Cloudy
11:52 PM 59.0 °F 51.1 °F 75% 30.08 in 10.0 mi SSE 10.4 mph - 0.00 in Rain Light Rain